www.pogodaiklimat.ru

АРХИВ ПОГОДЫ в Тюмени

Время (UTC), дата Ветер
(напр.,м/с)
 
Видим.   Явления Облачность Т
(С)
Тd
(С)
f
(%)
Тe
(С)
Тes
(С)
Комфортность P
(гПа)
Po
(гПа)
Тmin
(С)
Tmax
(С)
R
(мм)
S
(см)
21 20.07 С 2 50 км ясно +18.4 +14.6 79 +19 +19 тепло 1015.2 1003.2
00 21.07 СЗ 2 4000 м ясно +17.3 +13.9 80 +18 +18 тепло 1015.4 1003.4
03 21.07 С 2 4000 м дымка 6/0
[Ac trans]
+18.8 +14.3 75 +20 +23 тепло 1016.0 1004.0 +16.9
06 21.07 С 3 4000 м мгла ?/? +24.3 +15.1 56 +27 +27 жарко 1015.6 1003.9
09 21.07 С 3 4000 м мгла ?/? +26.5 +13.9 46 +29 +29 жарко 1015.4 1003.8
12 21.07 СВ 2 4000 м мгла ?/? +26.7 +14.1 46 +29 +29 жарко 1015.7 1004.1
15 21.07 СЗ 1 4000 м мгла ?/? +24.0 +15.8 60 +27 +27 жарко 1015.5 1003.8 +27.2
18 21.07 С 1 50 км ясно +19.5 +16.4 82 +23 +23 комфорт 1016.4 1004.5
21 21.07 С 1 50 км ясно +17.8 +15.2 85 +19 +19 тепло 1016.4 1004.4
00 22.07 СЗ 2 4000 м мгла ?/? +16.2 +14.5 90 +16 +16 тепло 1016.7 1004.6
03 22.07 СЗ 2 4000 м мгла ясно +19.9 +14.0 69 +22 +27 комфорт 1016.2 1004.3 +16.0
06 22.07 С 2 4000 м мгла 6/0
[Ci fib]
+24.4 +12.6 48 +21 +32 комфорт 1015.1 1003.4
09 22.07 СВ 2 4000 м мгла 3/3 600 м
[Cu med, cong]
+27.2 +12.3 40 +29 +38 жарко 1014.3 1002.8
12 22.07 С 2 4000 м мгла ясно +26.8 +14.9 48 +29 +35 жарко 1013.9 1002.3
15 22.07 СЗ 1 4000 м мгла 6/0
[Ci fib]
+24.6 +17.0 63 +28 +29 душно 1013.6 1001.9 +27.7
18 22.07 СЗ 1 5000 м мгла ясно +21.2 +16.9 76 +25 +25 комфорт 1012.8 1001.0
21 22.07 СЗ 1 6000 м дымка ясно +18.8 +16.6 87 +21 +21 комфорт 1012.9 1000.9
00 23.07 СЗ 2 4000 м дымка 5/0
[Ac cast Ci fib]
+17.4 +16.0 91 +18 +18 тепло 1012.3 1000.3
03 23.07 СЗ 2 4000 м мгла 6/0
[Ac cast]
+19.6 +16.9 84 +20 +22 тепло 1011.4 999.5 +17.3
06 23.07 СЗ 2 4000 м мгла 8/8 600 м
[Cu med, cong]
+24.4 +16.9 63 +28 +31 душно 1010.8 999.1
09 23.07 С 2 4000 м дымка 9/9 600 м
[Cb calv]
+27.5 +15.6 48 +30 +32 жарко 1009.6 998.1
12 23.07 СВ 2 4000 м гроза без осадков {ливн. осадки} 9/9 600 м
[Cb calv]
+25.5 +17.2 60 +29 +30 душно 1009.5 997.9
15 23.07 С 1 4000 м дымка {гроза} 6/0
[Ac trans]
+24.0 +17.6 67 +28 +28 душно 1009.2 997.5 +27.9 0.0
18 23.07 С 1 50 км {гроза} 6/0
[Ac trans]
+20.0 +17.0 83 +24 +24 комфорт 1009.1 998.1
21 23.07 СЗ 2 50 км ясно +18.6 +15.9 84 +20 +20 тепло 1009.0 997.1
00 24.07 С 2 4000 м дымка 8/0
[Ci fib]
+16.0 +15.0 94 +16 +16 тепло 1009.2 997.2
03 24.07 С 2 500 м туман ?/? +16.9 +16.4 97 +17 +17 по сезону 1009.4 997.4 +15.8
06 24.07 СЗ 3 1000 м дымка {туман} 10/10 300 м
[St]
+19.6 +17.5 88 +22 +22 комфорт 1009.5 997.7
09 24.07 С 4 4000 м дымка 10/10 300 м
[Sc]
+21.8 +16.5 72 +26 +26 душно 1009.4 997.7
12 24.07 С 3 4000 м дымка 10/4 300 м
[Cu med, cong Ac As]
+20.8 +16.5 76 +25 +25 комфорт 1010.0 998.2
15 24.07 СЗ 2 4000 м дымка 10/10 600 м
[Sc]
+19.6 +16.8 84 +22 +22 комфорт 1010.5 998.7 +22.5
18 24.07 С 2 5000 м дымка 10/0
[Ac As]
+18.8 +14.7 77 +20 +20 тепло 1011.0 999.1
21 24.07 С 3 6000 м дымка 9/0
[Ac trans]
+17.1 +12.6 75 +17 +17 тепло 1011.2 999.2
00 25.07 С 3 4000 м дымка ясно +14.1 +10.9 81 +13 +13 по сезону 1011.7 999.6
03 25.07 С 3 4000 м дым ясно +15.1 +10.7 75 +14 +18 прохладно 1012.3 1000.2 +13.6
06 25.07 С 4-10
{10}
4000 м дым ясно +18.2 +10.2 60 +18 +26 прохладно 1012.9 1000.9
09 25.07 С 3
{10}
4000 м дым 4/0
[Ac trans]
+20.7 +10.2 51 +23 +31 комфорт 1013.1 1001.2
12 25.07 С 3
{10}
4000 м 6/0
[Ac As]
+21.2 +8.8 45 +22 +25 комфорт 1013.3 1001.4
15 25.07 С 2
{10}
4000 м ясно +19.2 +10.0 55 +21 +21 комфорт 1014.1 1002.1 +21.8
18 25.07 С 1 50 км ясно +15.4 +11.3 77 +16 +16 по сезону 1015.1 1003.0
21 25.07 С 1 7000 м дымка ясно +13.2 +9.3 77 +13 +13 прохладно 1015.4 1003.2
00 26.07 С 1 4000 м дымка ясно +11.5 +8.5 82 +11 +11 прохладно 1016.1 1003.8
03 26.07 С 2 4000 м дымка ясно +14.0 +9.3 73 +14 +18 прохладно 1016.3 1004.2 +11.2
06 26.07 СВ 3 4000 м дым 3/3 1000 м
[Cu med, cong]
+19.0 +9.2 53 +20 +27 по сезону 1016.3 1004.3
09 26.07 С 2 4000 м 8/3 600 м
[Cu med, cong Ac trans]
+19.6 +8.8 50 +21 +26 комфорт 1016.3 1004.3
12 26.07 С 2 4000 м 8/4 600 м
[Cu med, cong Ac trans]
+22.0 +8.4 42 +23 +25 комфорт 1014.8 1003.0
15 26.07 СВ 1 4000 м ясно +21.0 +9.9 49 +24 +24 комфорт 1014.7 1002.8 +22.3
18 26.07 штиль 0 50 км ясно +14.6 +10.4 76 +14 +14 прохладно 1015.3 1003.2
21 26.07 штиль 0 50 км 8/0
[Ac trans]
+13.0 +11.5 91 +12 +12 прохладно 1015.1 1002.9
00 27.07 штиль 0 4000 м 6/0
[Ac cast]
+11.5 +10.5 94 +11 +11 прохладно 1014.9 1002.6
03 27.07 З 2 4000 м 9/0
[Ac cast Ci sp]
+17.2 +11.8 71 +18 +21 по сезону 1014.6 1002.6 +11.3
06 27.07 З 2 4000 м 9/0
[Ac trans Ci fib]
+22.0 +11.9 53 +24 +31 комфорт 1014.1 1002.3
09 27.07 З 3 4000 м 8/6 600 м
[Cu med, cong Ac trans Ci fib]
+23.8 +12.7 50 +26 +29 жарко 1013.0 1001.3
12 27.07 З 3 4000 м 6/4 600 м
[Cu med, cong Ci fib]
+25.0 +13.4 49 +27 +30 жарко 1011.1 999.4
15 27.07 З 1 4000 м 8/0
[Ci fib]
+23.8 +13.9 54 +26 +26 жарко 1011.1 999.4 +25.7
18 27.07 З 1 50 км 8/0
[Ac trans Ci fib]
+19.0 +14.5 75 +21 +21 комфорт 1011.0 999.1

 

Местоположение метеостанции Тюмень (Тюменская область, Россия): широта 57.12 долгота 65.43 высота над уровнем моря 102 м.

В архиве по умолчанию представлена погода в Тюмени за последнюю неделю. Архивные данные за месяц целиком и за предыдущие месяцы, начиная с января 2011 года, Вы можете получить, выбрав интересующий диапазон дат из раскрывающегося списка и нажав кнопку "Ввод!".

Внимание! Время в таблицах - всемирное. Для получения местного времени необходимо прибавить поправку, которая в Тюмени равна 5 ч.

Ветер - указаны скорость ветра в м/с - средняя за 10 мин, порывы в срок и между сроками (в фигурных скобках) и направление, откуда дует ветер: С - северный, СВ - северо-восточный, В - восточный, ЮВ - юго-восточный, Ю - южный, ЮЗ - юго-западный, З - западный, СЗ - северо-западный.
Видимость - горизонтальная дальность видимости в метрах или километрах. При видимости от 1 до 10 км при отсутствии осадков обычно наблюдается дымка, при ухудшении видимости до 1 км и менее - туман. В сухую погоду видимость может ухудшаться дымом, пылью или мглою.
Явления - указаны атмосферные явления, наблюдавшиеся в срок или в последний час перед сроком; фигурными скобками обозначены явления, наблюдавшиеся между сроками (за 1-3 часа до срока); квадратными скобками обозначены град или гололедные отложения с указанием их диаметра в мм.
Облачность - указаны через наклонную черту общая и нижняя облачность в баллах и высота нижней границы облаков в метрах; квадратными скобками обозначены формы облаков: Ci - перистые, Cs - перисто-слоистые, Cc - перисто-кучевые, Ac - высококучевые, As - высокослоистые, Sc - слоисто-кучевые, Ns - слоисто-дождевые, Cu - кучевые, Cb - кучево-дождевые. Подробнее классификацию облаков см. в Атласе облаков (PDF).
T - Температура воздуха - температура, измеренная на высоте 2 м над землей.
Td - Температура точки росы - температура, при понижении до которой содержащийся в воздухе водяной пар достигнет насыщения.
f - Относительная влажность воздуха - влажноcть воздуха, измеренная на высоте 2 м над землей.
Te - Эффективная температура - температура, которую ощущает одетый по сезону человек в тени. Характеристика душности погоды. При расчете учитывается влияние влажности воздуха и скорости ветра на теплоощущения человека.
Tes - Эффективная температура на солнце - температура, которую ощущает человек, с поправкой на солнечный нагрев. Характеристика знойности погоды. Зависит от высоты солнца над горизонтом, облачности и скорости ветра. Ночью, в пасмурную погоду, а также при ветре 12 м/с и более поправка равна нулю.
P - Атмосферное давление - приведенное к уровню моря атмосферное давление.
Po - Атмосферное давление - измеренное на уровне метеостанции атмосферное давление.
Tmin - Минимальная температура - минимум температуры воздуха на высоте 2 м над землей.
Tmax - Максимальная температура - максимум температуры воздуха на высоте 2 м над землей.
R - Количество осадков - Количество выпавших осадков, мм. При наведении курсора мыши на число - период времени, за который выпало указанное количество осадков.
S - Снежный покров - Высота снежного покрова, см. При наведении курсора мыши на число - состояние снежного покрова и степень покрытия местности в баллах.